Flag for Germany Weather past 2 weeks in Königswinter, North Rhine-Westphalia, Germany

Now
62 °F

Fog.


Feels Like: 62 °F
Forecast: 57 / 81 °F
Wind: 1 mph from East

Location: Bonn-Hangelar

Current Time: Jul 23, 2014 at 7:27:36 AM

Latest Report: Jul 23, 2014 at 6:00 AM


Visibility: 5 mi

Pressure: 30.07 "Hg

Humidity: 92%

Dew point: 59 °F

Location of KönigswinterLocation

Historic Weather in Königswinter — Graph

°F

Königswinter temperature yesterday

Maximum temperature yesterday: 77 °F (at 6:00 PM)
Minimum temperature yesterday: 64 °F (at 1:00 AM)
Average temperature yesterday: 69 °F

Past Weeks' High & Low Weather Summary

 TemperatureHumidityPressure
High93 °F (Jul 19, 5:00 PM)100% (Jul 10, 3:00 AM)30.20 "Hg (Jul 10, 3:00 AM)
Low54 °F (Jul 9, 2:00 AM)23% (Jul 19, 3:00 PM)29.71 "Hg (Jul 9, 6:00 PM)
Average67 °F79%29.95 "Hg
* Reported Jul 8 6:00 AM — Jul 23 6:00 AM, Königswinter, Weather by CustomWeather, © 2014

Note: Actual official high and low records may vary slightly from our data, if they occured in-between our weather recording intervals... More about our weather records

Advertising

Königswinter weather history for previous 24 hours

 ConditionsComfort  
Time TempWeatherWind HumidityBarometerVisibility
6:00 AM
Jul 23
62 °FFog.1 mph92%30.07 "Hg5 mi
5:00 AM63 °FFog.1 mph92%30.07 "Hg3 mi
4:00 AM64 °FFog.2 mph87%30.08 "Hg4 mi
3:00 AM65 °FPassing clouds.1 mph87%30.08 "Hg6 mi
2:00 AM66 °FPassing clouds.3 mph85%30.09 "Hg13 mi
7:00 PM
Jul 22
76 °FScattered clouds.3 mph67%30.04 "Hg12 mi
6:00 PM77 °FPartly sunny.5 mph63%30.03 "Hg11 mi
5:00 PM76 °FPartly sunny.5 mph64%30.03 "Hg11 mi
4:00 PM76 °FOvercast.5 mph65%30.04 "Hg11 mi
3:00 PM75 °FOvercast.5 mph64%30.04 "Hg11 mi
2:00 PM75 °FPartly sunny.3 mph67%30.04 "Hg9 mi
1:00 PM73 °FOvercast.3 mph76%30.05 "Hg7 mi
12:00 PM71 °FFog.3 mph91%30.04 "Hg4 mi
11:00 AM67 °FFog.2 mph99%30.05 "Hg1 mi
10:00 AM66 °FFog.3 mph100%30.04 "Hg0 mi
9:00 AM65 °FFog.3 mph99%30.03 "Hg0 mi
8:00 AM65 °FFog.3 mph99%30.01 "Hg0 mi
7:00 AM65 °FFog.2 mph99%30.01 "Hg0 mi
Weather by CustomWeather, © 2014

See weather overviewHow to use our weather pages